Location: *
(45.5667°S, 177.5167°W)
Time: 04:37:19
(UTC+00:00)

Cosmos 1486 Rocket - Pass Details

Date: 29 May 2022
Orbit: 759 x 782 km, 74.1° (Epoch: 24 June)

Event Time Altitude Azimuth Distance (km) Brightness Sun altitude
Rises 04:59:33 0° 198° (SSW) 3,301 7.2 -7.4°
Reaches altitude 10° 05:02:03 10° 192° (SSW) 2,369 6.4 -7.8°
Maximum altitude 05:07:16 48° 117° (ESE) 1,035 4.3 -8.6°
Drops below altitude 10° 05:12:26 10° 43° (NE) 2,349 6.3 -9.4°
Sets 05:14:54 0° 37° (NE) 3,269 7.1 -9.8°
